Location: Kellogg
(38.0159°N, 90.0546°W)
Time: 22:08:29
(UTC+00:00)

Transit 4A - Pass Details

Date: 13 September 2024
Orbit: 864 x 978 km, 66.8° (Epoch: 12 October)

Event Time Altitude Azimuth Distance (km) Brightness Sun altitude
Rises 09:35:18 0° 222° (SW) 3,437 - -24.5°
Reaches altitude 10° 09:37:49 10° 227° (SW) 2,510 - -24.1°
Exits shadow 09:42:40 48° 277° (W) 1,143 8.0 -23.2°
Maximum altitude 09:43:27 51° 303° (WNW) 1,101 8.0 -23.1°
Drops below altitude 10° 09:49:14 10° 19° (NNE) 2,579 10.8 -22.0°
Sets 09:51:52 0° 24° (NNE) 3,541 11.7 -21.6°
